Regional Weather Roundup
Issued by NWS

Home | Current Version | Previous Version | Graphics & Text | Print | Product List | Glossary On
Versions: 1 2 3 4 5 6 7 8 9 10 11 12 13 14 15 16 17 18 19 20 21 22 23 24 25 26 27
000
ASUS45 KCYS 201910
RWRWY

WYOMING REGIONAL WEATHER ROUNDUP
NATIONAL WEATHER SERVICE CHEYENNE WY
1200 PM MST MON FEB 20 2017

NOTE:  "FAIR" INDICATES FEW OR NO CLOUDS BELOW 12,000 FEET
WITH NO SIGNIFICANT WEATHER AND/OR OBSTRUCTIONS TO VISIBILITY.

WYZ001-202000-
YELLOWSTONE NATIONAL PARK

CITY           SKY/WX    TMP DP  RH WIND       PRES   REMARKS
LK YELLOWSTONE   N/A     31  29  92 VRB6      29.90F WCI  25
W YELLOWSTONE  NOT AVBL

$$
WYZ002>013-054>058-071-098>099-202000-
NORTHERN WYOMING

CITY           SKY/WX    TMP DP  RH WIND       PRES   REMARKS
JACKSON        CLOUDY    32  30  93 SW10      29.96F WCI  24
CODY           FAIR      51  25  36 SW24G31   29.81F
GREYBULL       FAIR      46  28  49 SE12      29.85
WORLAND        FAIR      49  28  44 SE10      29.84F
SHERIDAN       FAIR      51  26  37 SE21      29.79F
BUFFALO        FAIR      53  19  26 S22G29    29.82S
GILLETTE       FAIR      52  21  29 SW17      29.84S
HULETT         FAIR      52  27  37 SW13      29.84S
NEWCASTLE      FAIR      50  27  40 NW6       29.89S

$$
WYZ014>020-022>026-101>103-202000-
CENTRAL WYOMING

CITY           SKY/WX    TMP DP  RH WIND       PRES   REMARKS
BIG PINEY      FAIR      25  22  88 SE8       30.05S WCI  16
PINEDALE       CLOUDY    32  27  80 S9        30.05F WCI  24
DUBOIS         CLOUDY    37  27  65 W21G30    29.92S WCI  27
LANDER         FAIR      51  26  37 NE5       29.88F
RIVERTON       FAIR      40  23  50 CALM      29.90F
CASPER         FAIR      49  27  42 SW33G45   29.94F
DOUGLAS        FAIR      54  21  27 W23G31    29.93F

$$
WYZ021-027>030-104>119-202000-
SOUTHERN WYOMING

CITY           SKY/WX    TMP DP  RH WIND       PRES   REMARKS
EVANSTON       FAIR      39  28  64 SW24      30.05S WCI  28
KEMMERER         N/A     41  28  60 S7        30.06S
FORT BRIDGER   FAIR      44  28  53 SW8       30.07F
ROCK SPRINGS   FAIR      41  28  60 S5        30.06S
DIXON            N/A     40  31  70 S18G35    30.17R WCI  31
RAWLINS        PTSUNNY   41  29  62 SW23G33   30.06R
SARATOGA       FAIR      43  28  56 SW17G23   30.10R
LARAMIE        FAIR      45  18  34 SW26G35   30.02S
CHEYENNE       FAIR      51  15  23 W15G29    29.98R
TORRINGTON     FAIR      58  14  17 W17G23    29.93S
PINE BLUFFS    FAIR      55  14  19 NW20G30   29.97S

$$




USA.gov is the U.S. government's official web portal to all federal, state and local government web resources and services.